Regional Weather Roundup
Issued by NWS

Home | Current Version | Previous Version | Text Only | Print | Product List | Glossary Off
Versions: 1 2 3 4 5 6 7 8 9 10 11 12 13 14 15 16 17 18 19 20 21 22 23 24 25 26 27 28 29 30 31 32 33 34 35 36 37 38 39 40 41 42 43 44 45 46 47 48 49 50

000
ASUS43 KDTX 242310
RWRMI
MICHIGAN HOURLY REGIONAL WEATHER ROUNDUP
NATIONAL WEATHER SERVICE DETROIT/PONTIAC MI
700 PM EDT FRI APR 24 2015

NOTE: "FAIR" INDICATES FEW OR NO CLOUDS BELOW 12,000 FEET WITH NO
SIGNIFICANT WEATHER AND/OR OBSTRUCTION TO VISIBILITY.

MIZ047>049-052>055-059>063-066>070-074>076-081>083-250000-
SOUTHEAST LOWER MICHIGAN

CITY           SKY/WX    TMP DP  RH WIND       PRES   REMARKS
ADRIAN         SUNNY     57  17  21 CALM      29.97F
ALMA           MOSUNNY   54  19  25 SW6       29.99R
ANN ARBOR      SUNNY     57  17  21 NW5       29.97F
BAD AXE        SUNNY     40  28  62 E13       30.03R WCI  32
CARO           SUNNY     51  20  29 CALM      29.99S
DETROIT CITY   SUNNY     50  26  39 SE13      29.99S
DETROIT        MOSUNNY   58  17  20 VRB7      29.99S
FLINT          SUNNY     54  20  26 NW7       29.99F
GROSSE ILE     SUNNY     48  37  66 S10       29.98R
HILLSDALE      MOSUNNY   56  19  23 W6        29.96F
HOWELL         SUNNY     54  17  23 NW5       29.98S

CITY           SKY/WX    TMP DP  RH WIND       PRES   REMARKS
JACKSON        SUNNY     56  19  23 NE3       29.96F
LAMBERTVILLE   SUNNY     59  19  21 NW3       29.97F
LANSING        SUNNY     54  19  25 NW6       29.99S
LAPEER         FAIR      51  16  25 NW7       29.99S
MASON          SUNNY     54  17  23 CALM      29.98R
MONROE         SUNNY     54  36  50 SE6       29.97S
MT. CLEMENS    MOSUNNY   49  25  38 E7        29.97F
PONTIAC        MOSUNNY   51  17  26 NW9       29.98S
PORT HOPE        N/A     36  24  62 E9        30.03S WCI  29
PORT HURON     SUNNY     43  27  52 NE9       30.02S
TRI CITIES     SUNNY     56  16  20 NW7       29.99S
TROY           SUNNY     55  15  20 NW7       30.00S
SAGINAW HB     SUNNY     54  19  26 CALM      29.98F
$$
MIZ043>046-050>051-056>058-064>065-071>073-077>080-250000-
SOUTHWEST LOWER MICHIGAN

CITY           SKY/WX    TMP DP  RH WIND       PRES   REMARKS
BATTLE CREEK   MOSUNNY   57  21  24 S6        29.96F
BENTON HARBOR  LGT RAIN  46  26  45 CALM      29.97F
BIG RAPIDS     MOSUNNY   54  16  22 N9        29.96F
COLDWATER      PTSUNNY   55  27  33 CALM      29.95F
FREMONT        FAIR      53  15  21 W9        29.98S
HOLLAND        PTSUNNY   55  18  23 NW5       29.98S
GRAND RAPIDS   PTSUNNY   56  17  21 CALM      29.97F
IONIA          FAIR      56  17  21 CALM      29.98R
KALAMAZOO      PTSUNNY   58  20  22 S5        29.95F
LUDINGTON      MOSUNNY   48  17  29 N7        30.01F
MARSHALL       SUNNY     55  21  26 W5        29.95F
MOUNT PLEASANT SUNNY     55  16  21 CALM      29.97S
MUSKEGON       PTSUNNY   50  17  27 NW6       29.99F
SOUTH HAVEN    CLOUDY    52  13  21 N5        29.96F
$$
MIZ016>042-250000-
NORTHERN LOWER MICHIGAN

CITY           SKY/WX    TMP DP  RH WIND       PRES   REMARKS
ALPENA         SUNNY     44  15  31 N14       30.02S
BEAVER ISLAND  SUNNY     40  13  34 SW7       30.04F WCI  35
BELLAIRE       SUNNY     44  13  28 NW5       30.03F
CADILLAC       SUNNY     46  19  34 N8        29.98S
CHARLEVOIX     SUNNY     41  16  36 W5        30.07S
FRANKFORT      MOSUNNY   44  13  28 NE7       30.03S
GAYLORD        SUNNY     42   8  24 W5        30.01S
GRAYLING       SUNNY     46  12  25 NW6       30.01S
HARBOR SPRINGS SUNNY     36  24  60 S6        30.03F WCI  31
HOUGHTON LAKE  SUNNY     47   9  21 NW8       30.00S
MANISTEE       MOSUNNY   45  23  42 NW7       30.02F
OSCODA         SUNNY     37  24  59 E9        30.03S WCI  31
PELLSTON       SUNNY     44  12  27 NW12      30.03F
ROGERS CITY    SUNNY     41  17  37 N8G16     30.04S
TRAVERSE CITY  PTSUNNY   41  17  38 NE8       30.02F
$$
MIZ007>008-015-250000-
EASTERN UPPER MICHIGAN

CITY           SKY/WX    TMP DP  RH WIND       PRES   REMARKS
KINROSS        SUNNY     34  16  47 N15       30.03F WCI  24
MACKINAC ISLAN SUNNY     39  24  53 SW5       30.03S
NEWBERRY       SUNNY     37  16  41 N8G16     30.02F WCI  31
S. S. MARIE    SUNNY     34  16  47 NW10      30.03F WCI  26
MUNISING         N/A     36  21  54 NE17      30.03S WCI  26
$$
MIZ004>006-011>014-085-250000-
CENTRAL UPPER MICHIGAN

CITY           SKY/WX    TMP DP  RH WIND       PRES   REMARKS
MANISTIQUE     MOSUNNY   37  28  72 S9        30.03S WCI  30
ESCANABA       PTSUNNY   39  23  52 SE8       30.01F WCI  34
MENOMINEE      CLOUDY    41  25  52 SE13      30.00F
SAWYER-GWINN   SUNNY     36  14  41 N13       30.00R WCI  27
$$
MIZ001>003-009>011-084-250000-
WESTERN UPPER MICHIGAN

CITY           SKY/WX    TMP DP  RH WIND       PRES   REMARKS
IRON MOUNTAIN  CLOUDY    45  24  43 SE9G20    29.95S
HOUGHTON       MOSUNNY   36  20  52 E15G21    30.00F WCI  27
COPPER HARBOR    N/A     37  22  54 SE6       30.03F WCI  32
IRONWOOD       CLOUDY    41  32  70 SE3       29.93F
$$

ABBREVIATIONS USED IN REMARKS
   TC - TEMPERATURE IN CELSIUS
  WCI - WIND CHILL INDEX
   HX - HEAT INDEX
  VSB - VISIBILITY



USA.gov is the U.S. government's official web portal to all federal, state and local government web resources and services.